Previsão horária em Abdrahmanovo

Hoje, 17 Janeiro, Domingo

Tempo Temperatura Precipitação Vento Pressão Humidade
00:00 -12°C° 0.2 mm 9 m/s 740 mmHg 92%
01:00 -11°C° 0.2 mm 9 m/s 740 mmHg 92%
02:00 -12°C° 0.2 mm 9 m/s 740 mmHg 92%
03:00 -14°C° 0.2 mm 9 m/s 740 mmHg 92%
04:00 -16°C° 0 mm 8 m/s 740 mmHg 91%
05:00 -17°C° 0.1 mm 8 m/s 740 mmHg 92%
06:00 -18°C° 0.1 mm 8 m/s 740 mmHg 92%
07:00 -19°C° 0.1 mm 8 m/s 740 mmHg 93%
08:00 -19°C° 0.2 mm 8 m/s 741 mmHg 92%
09:00 -19°C° 0.2 mm 7 m/s 741 mmHg 92%
10:00 -20°C° 0.2 mm 7 m/s 742 mmHg 91%
11:00 -20°C° 0 mm 7 m/s 743 mmHg 91%
12:00 -20°C° 0 mm 7 m/s 743 mmHg 91%
13:00 -20°C° 0 mm 6 m/s 744 mmHg 91%
14:00 -21°C° 0 mm 6 m/s 745 mmHg 92%
15:00 -20°C° 0 mm 5 m/s 745 mmHg 94%
16:00 -20°C° 0 mm 4 m/s 746 mmHg 95%
17:00 -22°C° 0 mm 4 m/s 746 mmHg 96%
18:00 -23°C° 0 mm 3 m/s 747 mmHg 98%
19:00 -24°C° 0 mm 3 m/s 747 mmHg 99%
20:00 -23°C° 0 mm 2 m/s 748 mmHg 99%
21:00 -23°C° 0 mm 2 m/s 748 mmHg 99%
22:00 -24°C° 0 mm 2 m/s 749 mmHg 98%
23:00 -21°C° 0 mm 1 m/s 749 mmHg 98%

Amanhã, 18 Janeiro, Segunda-feira

Tempo Temperatura Precipitação Vento Pressão Humidade
00:00 -22°C° 0 mm 1 m/s 750 mmHg 99%
01:00 -22°C° 0 mm 1 m/s 750 mmHg 99%
02:00 -23°C° 0 mm 1 m/s 750 mmHg 99%
03:00 -23°C° 0 mm 0 m/s 750 mmHg 99%
04:00 -24°C° 0 mm 0 m/s 750 mmHg 99%
05:00 -24°C° 0 mm 0 m/s 751 mmHg 99%
06:00 -24°C° 0 mm 0 m/s 751 mmHg 99%
07:00 -24°C° 0 mm 0 m/s 751 mmHg 99%
08:00 -23°C° 0 mm 0 m/s 751 mmHg 98%
09:00 -23°C° 0 mm 0 m/s 751 mmHg 96%
10:00 -22°C° 0 mm 0 m/s 751 mmHg 95%
11:00 -21°C° 0 mm 0 m/s 751 mmHg 94%
12:00 -20°C° 0 mm 0 m/s 751 mmHg 93%
13:00 -18°C° 0 mm 0 m/s 751 mmHg 91%
14:00 -19°C° 0 mm 0 m/s 751 mmHg 91%
15:00 -19°C° 0 mm 1 m/s 751 mmHg 92%
16:00 -19°C° 0 mm 1 m/s 751 mmHg 92%
17:00 -19°C° 0 mm 1 m/s 750 mmHg 92%
18:00 -21°C° 0 mm 2 m/s 750 mmHg 92%
19:00 -21°C° 0 mm 2 m/s 750 mmHg 92%
20:00 -20°C° 0 mm 2 m/s 750 mmHg 92%
21:00 -19°C° 0 mm 2 m/s 749 mmHg 92%
22:00 -18°C° 0 mm 2 m/s 749 mmHg 91%
23:00 -18°C° 0.2 mm 2 m/s 749 mmHg 93%

Depois de amanhã, 19 Janeiro, Terça-feira

Tempo Temperatura Precipitação Vento Pressão Humidade
00:00 -19°C° 0.2 mm 3 m/s 748 mmHg 94%
01:00 -18°C° 0.2 mm 3 m/s 748 mmHg 95%
02:00 -18°C° 0.3 mm 3 m/s 748 mmHg 95%
03:00 -19°C° 0.3 mm 4 m/s 747 mmHg 94%
04:00 -19°C° 0.3 mm 4 m/s 747 mmHg 94%
05:00 -19°C° 0 mm 4 m/s 746 mmHg 94%
06:00 -19°C° 0 mm 4 m/s 746 mmHg 93%
07:00 -19°C° 0 mm 4 m/s 745 mmHg 92%
08:00 -19°C° 0 mm 4 m/s 745 mmHg 93%
09:00 -18°C° 0 mm 4 m/s 745 mmHg 93%
10:00 -18°C° 0 mm 4 m/s 745 mmHg 93%
11:00 -17°C° 0.4 mm 3 m/s 744 mmHg 94%
12:00 -16°C° 0.4 mm 3 m/s 744 mmHg 94%
13:00 -16°C° 0.4 mm 3 m/s 744 mmHg 95%
14:00 -14°C° 0.3 mm 2 m/s 744 mmHg 95%
15:00 -14°C° 0.3 mm 2 m/s 744 mmHg 95%
16:00 -12°C° 0.3 mm 1 m/s 743 mmHg 95%
17:00 -13°C° 0.1 mm 1 m/s 743 mmHg 96%
18:00 -13°C° 0.1 mm 1 m/s 743 mmHg 96%
19:00 -13°C° 0.1 mm 1 m/s 743 mmHg 96%
20:00 -14°C° 0 mm 1 m/s 744 mmHg 96%
21:00 -15°C° 0 mm 1 m/s 744 mmHg 96%
22:00 -18°C° 0 mm 2 m/s 744 mmHg 96%
23:00 -19°C° 0 mm 2 m/s 745 mmHg 97%

20 Janeiro, Quarta-feira

Tempo Temperatura Precipitação Vento Pressão Humidade
00:00 -22°C° 0 mm 3 m/s 745 mmHg 98%
01:00 -23°C° 0 mm 3 m/s 745 mmHg 99%
02:00 -24°C° 0 mm 3 m/s 745 mmHg 99%
03:00 -25°C° 0 mm 3 m/s 746 mmHg 99%
04:00 -25°C° 0 mm 3 m/s 746 mmHg 99%
05:00 -26°C° 0 mm 3 m/s 746 mmHg 99%
06:00 -26°C° 0 mm 3 m/s 747 mmHg 99%
07:00 -27°C° 0 mm 3 m/s 747 mmHg 99%
08:00 -27°C° 0 mm 3 m/s 747 mmHg 98%
09:00 -27°C° 0 mm 3 m/s 748 mmHg 98%
10:00 -27°C° 0 mm 4 m/s 748 mmHg 98%
11:00 -27°C° 0 mm 4 m/s 748 mmHg 97%
12:00 -26°C° 0 mm 4 m/s 748 mmHg 96%
13:00 -25°C° 0 mm 4 m/s 749 mmHg 96%
14:00 -25°C° 0 mm 4 m/s 748 mmHg 96%
15:00 -25°C° 0 mm 4 m/s 748 mmHg 95%
16:00 -25°C° 0 mm 4 m/s 748 mmHg 95%
17:00 -25°C° 0 mm 4 m/s 748 mmHg 96%
18:00 -25°C° 0 mm 4 m/s 749 mmHg 96%
19:00 -26°C° 0 mm 4 m/s 749 mmHg 97%
20:00 -26°C° 0.1 mm 4 m/s 749 mmHg 97%
21:00 -26°C° 0.1 mm 4 m/s 749 mmHg 97%
22:00 -26°C° 0.1 mm 4 m/s 749 mmHg 97%
23:00 -26°C° 0.1 mm 4 m/s 749 mmHg 97%

21 Janeiro, Quinta-feira

Tempo Temperatura Precipitação Vento Pressão Humidade
00:00 -26°C° 0.1 mm 4 m/s 749 mmHg 97%
01:00 -25°C° 0.1 mm 4 m/s 749 mmHg 97%
02:00 -26°C° 0 mm 4 m/s 749 mmHg 98%
03:00 -27°C° 0 mm 3 m/s 749 mmHg 98%
04:00 -29°C° 0 mm 3 m/s 749 mmHg 99%
05:00 -27°C° 0.1 mm 3 m/s 750 mmHg 99%
06:00 -26°C° 0.1 mm 3 m/s 750 mmHg 98%
07:00 -25°C° 0.1 mm 3 m/s 750 mmHg 97%
08:00 -24°C° 0.1 mm 3 m/s 750 mmHg 97%
09:00 -24°C° 0.1 mm 3 m/s 750 mmHg 97%
10:00 -24°C° 0.1 mm 3 m/s 750 mmHg 97%
11:00 -23°C° 0 mm 3 m/s 750 mmHg 96%
12:00 -22°C° 0 mm 3 m/s 751 mmHg 96%
13:00 -21°C° 0 mm 3 m/s 751 mmHg 95%
14:00 -21°C° 0 mm 3 m/s 751 mmHg 95%
15:00 -21°C° 0 mm 3 m/s 751 mmHg 96%
16:00 -21°C° 0 mm 3 m/s 750 mmHg 96%
17:00 -19°C° 0.1 mm 3 m/s 751 mmHg 96%
18:00 -19°C° 0.1 mm 3 m/s 751 mmHg 96%
19:00 -19°C° 0.1 mm 3 m/s 751 mmHg 96%
20:00 -19°C° 0.1 mm 3 m/s 751 mmHg 96%
21:00 -18°C° 0.1 mm 3 m/s 751 mmHg 96%
22:00 -18°C° 0.1 mm 3 m/s 751 mmHg 96%
23:00 -18°C° 0.1 mm 3 m/s 751 mmHg 96%

22 Janeiro, Sexta-feira

Tempo Temperatura Precipitação Vento Pressão Humidade
00:00 -18°C° 0.1 mm 3 m/s 751 mmHg 96%
01:00 -18°C° 0.1 mm 3 m/s 751 mmHg 96%
02:00 -18°C° 0.1 mm 3 m/s 751 mmHg 96%
03:00 -18°C° 0.1 mm 3 m/s 751 mmHg 96%
04:00 -18°C° 0.1 mm 3 m/s 751 mmHg 96%
05:00 -18°C° 0.1 mm 3 m/s 751 mmHg 96%
06:00 -18°C° 0.1 mm 3 m/s 751 mmHg 96%
07:00 -18°C° 0.1 mm 3 m/s 751 mmHg 96%
08:00 -19°C° 0.1 mm 3 m/s 751 mmHg 96%
09:00 -19°C° 0.1 mm 3 m/s 751 mmHg 96%
10:00 -19°C° 0.1 mm 3 m/s 751 mmHg 96%
11:00 -19°C° 0 mm 3 m/s 751 mmHg 96%
12:00 -19°C° 0 mm 3 m/s 751 mmHg 95%
13:00 -19°C° 0 mm 3 m/s 751 mmHg 95%
14:00 -18°C° 0 mm 2 m/s 751 mmHg 95%
15:00 -17°C° 0 mm 2 m/s 751 mmHg 95%
16:00 -17°C° 0 mm 2 m/s 751 mmHg 96%
17:00 -17°C° 0 mm 2 m/s 751 mmHg 96%
18:00 -17°C° 0 mm 2 m/s 752 mmHg 96%
19:00 -15°C° 0 mm 1 m/s 752 mmHg 96%
20:00 -15°C° 0 mm 1 m/s 752 mmHg 96%
21:00 -15°C° 0 mm 1 m/s 752 mmHg 96%
22:00 -14°C° 0 mm 1 m/s 752 mmHg 96%
23:00 -14°C° 0.1 mm 1 m/s 752 mmHg 96%
Mostrar mais